Regional Weather Roundup
Issued by NWS

Home | Current Version | Previous Version | Graphics & Text | Print | Product List | Glossary On
Versions: 1 2 3 4 5 6 7 8 9 10 11 12 13 14 15 16 17 18 19 20 21 22 23 24 25 26 27 28 29 30 31 32 33 34 35 36 37 38 39 40 41 42 43 44 45 46 47 48 49 50
753
ASUS45 KTFX 292210
RWRMT
MONTANA REGIONAL WEATHER ROUNDUP
NATIONAL WEATHER SERVICE GREAT FALLS MT
400 PM MDT MON AUG 29 2016

NOTE: "FAIR" INDICATES FEW OR NO CLOUDS BELOW 12000 FEET WITH NO
SIGNIFICANT WEATHER AND/OR OBSTRUCTIONS TO VISIBILITY.

MTZ001>007-043-292300-
WEST OF THE DIVIDE

CITY           SKY/WX    TMP DP  RH WIND       PRES   REMARKS
KALISPELL      SUNNY     87  42  20 E9        30.04F
MISSOULA       MOSUNNY   93  35  13 SE5       30.02F
BUTTE          SUNNY     83  32  16 E10       30.21F
MULLAN PASS    MOSUNNY   79  34  19 VRB5      30.21F
DEER LODGE       N/A     90  32  12 SE6       30.16F
EUREKA           N/A     88  39  18 NW5       30.03F
HAMILTON         N/A     88  46  23 N6        30.04F
LIBBY            N/A     88  41  19 N7        30.00F
PLAINS           N/A     89  44  20 CALM      29.99F
RONAN            N/A     85  44  23 NW7       30.08F
$$

MTZ008-052>055-292300-
SOUTHWEST MONTANA

CITY           SKY/WX    TMP DP  RH WIND       PRES   REMARKS
BOZEMAN        CLOUDY    88  43  20 NE5       30.17F
DILLON         CLOUDY    84  36  18 CALM      30.18F
W YELLOWSTONE  CLOUDY    81  19  10 SW10G20   30.32F
ENNIS          SUNNY     86  32  14 N9        30.24F
THREE FORKS      N/A     87  87 100 N2        30.13F HX 116
$$

MTZ009-010-012-014-046-048-049-054-292300-
EAST SLOPES AND CENTRAL MONTANA

CITY           SKY/WX    TMP DP  RH WIND       PRES   REMARKS
CUT BANK       MOSUNNY   83  41  22 SE9G21    30.14F
GREAT FALLS    CLOUDY    88  39  17 NE8       30.13F
MALMSTROM AFB  SUNNY     87  41  19 N5        30.12F
HELENA         SUNNY     91  34  13 E10G16    30.11F
CHOTEAU          N/A     88  36  15 E8G15     30.14F
$$

MTZ011-013-016-021-045-047-050-051-292300-
NORTH CENTRAL MONTANA

CITY           SKY/WX    TMP DP  RH WIND       PRES   REMARKS
HAVRE          SUNNY     83  45  26 CALM      30.14F
LEWISTOWN      SUNNY     86  42  21 NE7       30.19F
N BAR RANCH      N/A     82  39  21 S13       30.25F
CHINOOK          N/A     81  52  36 NE10      30.13F
$$

MTZ017>020-022>027-061-062-292300-
NORTHEAST MONTANA

CITY           SKY/WX    TMP DP  RH WIND       PRES   REMARKS
GLASGOW        SUNNY     82  46  28 SE13      30.19F
JORDAN           N/A     86  46  24 SE14G24   30.17F
SIDNEY         SUNNY     81  45  28 E7        30.22F
WOLF POINT     SUNNY     83  44  25 SE5       30.20F
PLENTYWOOD       N/A     77  43  29 SE6       30.24F
POPLAR           N/A     81  45  28 SE8       30.22F
$$

MTZ028>42-056>058-292300-
SOUTHCENTRAL AND SOUTHEAST MONTANA

CITY           SKY/WX    TMP DP  RH WIND       PRES   REMARKS
BAKER          SUNNY     83  45  26 SE13G22   30.25F
BILLINGS       MOSUNNY   84  47  27 E13       30.18F
LIVINGSTON     CLOUDY    84  42  22 E16       30.20F
MILES CITY     SUNNY     88  46  23 SE9       30.17F
FORSYTH          N/A     88  48  25 SE9       30.16F
LAUREL           N/A     83  49  30 NE8       30.15F
ROUNDUP          N/A     86  45  23 E9        30.08F
$$

REGIONAL REPORTS...DAKOTAS

CITY           SKY/WX    TMP DP  RH WIND       PRES   REMARKS
WILLISTON      SUNNY     80  42  25 SE6       30.24F
MINOT          SUNNY     79  43  27 N8        30.23F
DICKINSON      SUNNY     79  41  25 VRB5      30.24F
CROSBY           N/A     75  39  27 S3        30.27F
WATFORD CITY     N/A     81  41  24 CALM      30.24F
BISMARCK       SUNNY     81  50  33 NE9       30.22F
GRAND FORKS    MOSUNNY   80  54  40 NW10      30.14S
FARGO          SUNNY     82  65  56 N13       30.15R
BUFFALO SD       N/A     83  46  27 E13       30.19F
RAPID CITY     SUNNY     83  56  39 E7        30.23F
$$

REGIONAL REPORTS...WYOMING/IDAHO/WASHINGTON

CITY           SKY/WX    TMP DP  RH WIND       PRES   REMARKS
GILLETTE       SUNNY     88  41  19 N5        30.23F
SHERIDAN       SUNNY     87  46  24 E8        30.21F
BUFFALO WY     SUNNY     84  40  21 VRB6      30.29F
CODY           SUNNY     84  39  20 E10       30.24F
YELLOWSTONE LA   N/A     73  35  25 SE5       30.42F
IDAHO FALLS    SUNNY     88  26  10 W10       30.19F
SALMON         CLOUDY    90  37  15 N7        30.08F
BOISE          SUNNY     90  43  19 NW6       30.04F
SPOKANE        MOSUNNY   88  38  17 VRB6      29.97F
$$

REGIONAL REPORTS...ALBERTA

CITY           SKY/WX    TMP DP  RH WIND       PRES   REMARKS
EDMONTON       SUNNY     66  46  48 SE14      30.15F
CALGARY        PTSUNNY   72  54  53 SE8       30.14S
LETHBRIDGE     PTSUNNY   82  41  23 E6G18     30.10F
MEDICINE HAT   MOSUNNY   81  48  32 VRB2      30.11F
WATERTON GATE    N/A     84  43  23 S5          N/A
MILK RIVER       N/A     84  39  20 S8          N/A
ONEFOUR          N/A     79  39  24 S3          N/A
$$

REGIONAL REPORTS...SASKATCHEWAN

CITY           SKY/WX    TMP DP  RH WIND       PRES   REMARKS
SWIFT CURRENT  SUNNY     72  46  40 SE13      30.21F
REGINA         MOSUNNY   70  43  37 VRB5      30.24F
SASKATOON      PTSUNNY   66  43  42 NW3       30.24F
CYPRESS HILLS    N/A     72  45  37 S7          N/A
VAL MARIE        N/A     79  45  29 S14G22      N/A
ROCKGLEN         N/A     73  43  33 SE7         N/A
ASSINIBOIA       N/A     66  43  42 E10         N/A
$$




USA.gov is the U.S. government's official web portal to all federal, state and local government web resources and services.